GW3995 Weather Reports


time (UTC)temp
C
wind
direction
speed
KPH
gust
KPH
rain 1hr
cm
rain 24hr
cm
rain mn
cm
humidity
%
barometer
mb
20260906120917 23 74 0.0 1.6 0.00 0.00 0.00 94 1013.4
20260906120418 23 360 0.0 0.0 0.00 0.00 0.00 94 1013.4
20260906115917 23 95 0.0 1.6 0.00 0.00 0.00 95 1013.3
20260906115418 23 360 0.0 0.0 0.00 0.00 0.00 95 1013.3
20260906114917 23 360 0.0 0.0 0.00 0.00 0.00 95 1013.3
20260906114417 23 205 0.0 0.0 0.00 0.00 0.00 95 1013.2
20260906113917 23 247 0.0 1.6 0.00 0.00 0.00 95 1013.1
20260906113417 23 207 0.0 0.0 0.00 0.00 0.00 95 1013.0
20260906112917 23 56 1.6 3.2 0.00 0.00 0.00 95 1013.0
20260906112417 23 360 0.0 0.0 0.00 0.00 0.00 95 1012.9
20260906111917 23 360 0.0 0.0 0.00 0.00 0.00 95 1012.9
20260906111417 23 360 0.0 0.0 0.00 0.00 0.00 95 1012.8
20260906110919 23 360 0.0 0.0 0.00 0.00 0.00 95 1012.7
20260906110417 23 66 0.0 1.6 0.00 0.00 0.00 96 1012.6
20260906105917 23 104 0.0 1.6 0.00 0.00 0.00 96 1012.6
20260906105417 23 66 0.0 0.0 0.00 0.00 0.00 96 1012.6
20260906104918 22 360 0.0 0.0 0.00 0.00 0.00 96 1012.6
20260906104417 22 360 0.0 0.0 0.00 0.00 0.00 96 1012.5
20260906103917 22 177 0.0 0.0 0.00 0.00 0.00 97 1012.4
20260906103417 22 360 0.0 0.0 0.00 0.00 0.00 97 1012.4
20260906102920 22 118 0.0 0.0 0.00 0.00 0.00 97 1012.4
20260906102417 22 67 0.0 1.6 0.00 0.00 0.00 97 1012.4
20260906101917 22 360 0.0 0.0 0.00 0.00 0.00 97 1012.4
20260906101417 22 360 0.0 0.0 0.00 0.00 0.00 97 1012.3
20260906100917 22 68 0.0 1.6 0.00 0.00 0.00 97 1012.2
20260906100417 22 74 0.0 1.6 0.00 0.00 0.00 97 1012.2
20260906095917 22 141 0.0 0.0 0.00 0.00 0.00 98 1012.1
20260906095417 22 109 0.0 1.6 0.00 0.00 0.00 98 1012.0
20260906094918 22 360 0.0 0.0 0.00 0.00 0.00 98 1012.0
20260906094421 22 360 0.0 0.0 0.00 0.00 0.00 98 1011.9
20260906093917 22 200 0.0 0.0 0.00 0.00 0.00 98 1011.7
20260906093416 22 360 0.0 0.0 0.00 0.00 0.00 98 1011.6
20260906092917 22 90 0.0 1.6 0.00 0.00 0.00 98 1011.6
20260906092417 22 360 0.0 0.0 0.00 0.00 0.00 98 1011.6
20260906091919 22 360 0.0 0.0 0.00 0.00 0.00 99 1011.5
20260906091417 22 360 0.0 0.0 0.00 0.00 0.00 99 1011.5
20260906090917 22 76 0.0 1.6 0.00 0.00 0.00 99 1011.4
20260906090417 22 360 0.0 0.0 0.00 0.00 0.00 99 1011.5
20260906085917 22 95 0.0 0.0 0.00 0.00 0.00 99 1011.5
20260906085418 22 360 0.0 0.0 0.00 0.00 0.00 99 1011.4
20260906084917 22 360 0.0 0.0 0.00 0.00 0.00 99 1011.5
20260906084417 22 360 0.0 0.0 0.00 0.00 0.00 99 1011.4
20260906083917 22 360 0.0 0.0 0.00 0.00 0.00 99 1011.3
20260906083422 22 360 0.0 0.0 0.00 0.00 0.00 99 1011.3
20260906082917 21 360 0.0 0.0 0.00 0.00 0.00 99 1011.3
20260906082417 21 360 0.0 0.0 0.00 0.00 0.00 99 1011.3
20260906081918 21 360 0.0 0.0 0.00 0.00 0.00 99 1011.4
20260906081417 21 360 0.0 0.0 0.00 0.00 0.00 98 1011.3
20260906080917 21 360 0.0 0.0 0.00 0.00 0.00 98 1011.2
20260906080417 21 360 0.0 0.0 0.00 0.00 0.00 98 1011.0
20260906075917 21 360 0.0 0.0 0.00 0.00 0.00 98 1010.9
20260906075417 21 360 0.0 0.0 0.00 0.00 0.00 98 1010.9
20260906074917 21 360 0.0 0.0 0.00 0.00 0.00 98 1010.9
20260906074417 21 360 0.0 0.0 0.00 0.00 0.00 98 1010.9
20260906073917 21 81 0.0 1.6 0.00 0.00 0.00 98 1010.8
20260906073418 21 360 0.0 0.0 0.00 0.00 0.00 98 1010.7
20260906072917 21 360 0.0 0.0 0.00 0.00 0.00 98 1010.7
20260906072417 21 360 0.0 0.0 0.00 0.00 0.00 98 1010.7
20260906071917 21 360 0.0 0.0 0.00 0.00 0.00 98 1010.8
20260906071418 21 360 0.0 0.0 0.00 0.00 0.00 98 1010.8
20260906070916 21 360 0.0 0.0 0.00 0.00 0.00 98 1010.8
20260906070417 21 360 0.0 0.0 0.00 0.00 0.00 98 1010.9
20260906065917 21 360 0.0 0.0 0.00 0.00 0.00 98 1010.9
20260906065417 21 360 0.0 0.0 0.00 0.00 0.00 98 1011.0
20260906064917 21 360 0.0 0.0 0.00 0.00 0.00 98 1010.9
20260906064417 21 360 0.0 0.0 0.00 0.00 0.00 98 1010.9
20260906063918 21 360 0.0 0.0 0.00 0.00 0.00 98 1011.0
20260906063417 21 360 0.0 0.0 0.00 0.00 0.00 98 1011.1
20260906062917 21 360 0.0 0.0 0.00 0.00 0.00 98 1011.2
20260906062417 21 360 0.0 0.0 0.00 0.00 0.00 98 1011.2
20260906061917 21 360 0.0 0.0 0.00 0.00 0.00 98 1011.1
20260906061418 21 360 0.0 0.0 0.00 0.00 0.00 98 1011.1
20260906060917 21 360 0.0 0.0 0.00 0.00 0.00 98 1011.1
20260906060416 21 360 0.0 0.0 0.00 0.00 0.00 98 1011.0
20260906055917 22 360 0.0 0.0 0.00 0.00 0.00 98 1011.2
20260906055417 22 360 0.0 0.0 0.00 0.00 0.00 98 1011.3
20260906054917 22 360 0.0 0.0 0.00 0.00 0.00 98 1011.4
20260906054417 22 360 0.0 0.0 0.00 0.00 0.00 98 1011.5
20260906053917 22 360 0.0 0.0 0.00 0.00 0.00 98 1011.6
20260906053417 22 360 0.0 0.0 0.00 0.00 0.00 97 1011.6
20260906052916 22 360 0.0 0.0 0.00 0.00 0.00 97 1011.6
20260906052417 22 360 0.0 0.0 0.00 0.00 0.00 97 1011.6
20260906051917 22 360 0.0 0.0 0.00 0.00 0.00 97 1011.7
20260906051418 22 360 0.0 0.0 0.00 0.00 0.00 97 1011.8
20260906050917 22 360 0.0 0.0 0.00 0.00 0.00 97 1011.9
20260906050417 22 360 0.0 0.0 0.00 0.00 0.00 97 1011.8
20260906045917 22 360 0.0 0.0 0.00 0.00 0.00 97 1011.8
20260906045417 22 360 0.0 0.0 0.00 0.00 0.00 97 1011.8
20260906044917 22 360 0.0 0.0 0.00 0.00 0.00 97 1011.9
20260906044417 22 360 0.0 0.0 0.00 0.00 0.00 97 1011.9
20260906043917 22 360 0.0 0.0 0.00 0.00 0.00 97 1012.0
20260906043417 22 360 0.0 0.0 0.00 0.00 0.00 97 1012.0
20260906042917 22 360 0.0 0.0 0.00 0.00 0.00 97 1012.1
20260906042417 22 360 0.0 0.0 0.00 0.00 0.00 97 1012.1
20260906041917 22 360 0.0 0.0 0.00 0.00 0.00 97 1012.1
20260906041417 22 360 0.0 0.0 0.00 0.00 0.00 97 1012.2
20260906040917 22 85 0.0 1.6 0.00 0.00 0.00 97 1012.1
20260906040417 22 360 0.0 0.0 0.00 0.00 0.00 97 1012.1
20260906035917 22 360 0.0 0.0 0.00 0.00 0.08 97 1012.2
20260906035417 22 360 0.0 0.0 0.00 0.00 0.08 97 1012.2
20260906034926 22 360 0.0 0.0 0.00 0.00 0.08 97 1012.2
20260906034417 22 67 0.0 0.0 0.00 0.00 0.08 97 1012.3
20260906033917 22 86 0.0 0.0 0.00 0.00 0.08 97 1012.2
20260906033417 23 110 0.0 1.6 0.00 0.00 0.08 98 1012.3
20260906032918 23 230 0.0 0.0 0.00 0.00 0.08 98 1012.3
20260906032416 23 147 0.0 0.0 0.00 0.00 0.08 98 1012.2
20260906031917 23 144 0.0 1.6 0.00 0.00 0.08 98 1012.2
20260906031417 23 360 0.0 0.0 0.00 0.00 0.08 98 1012.2
20260906030917 22 80 0.0 0.0 0.00 0.00 0.08 98 1012.1
20260906030418 22 257 0.0 0.0 0.00 0.00 0.08 98 1012.0
20260906025917 22 239 0.0 1.6 0.00 0.00 0.08 98 1011.9
20260906025417 22 47 1.6 1.6 0.00 0.00 0.08 98 1011.9
20260906024917 23 47 1.6 1.6 0.00 0.00 0.08 98 1011.8
20260906024417 23 50 1.6 1.6 0.00 0.00 0.08 98 1011.8
20260906023917 23 360 0.0 0.0 0.00 0.00 0.08 98 1011.9
20260906023417 23 111 0.0 0.0 0.00 0.00 0.08 97 1012.0
20260906022917 23 360 0.0 0.0 0.00 0.00 0.08 97 1011.9
20260906022417 23 40 0.0 0.0 0.00 0.00 0.08 98 1012.0
20260906021917 23 360 0.0 0.0 0.00 0.00 0.08 98 1011.9
20260906021417 23 154 0.0 1.6 0.00 0.00 0.08 98 1011.9
20260906020917 23 360 0.0 0.0 0.00 0.00 0.08 98 1011.7
20260906020417 23 47 0.0 0.0 0.00 0.00 0.08 98 1011.7
20260906015918 23 360 0.0 0.0 0.00 0.00 0.08 97 1011.7
20260906015417 23 360 0.0 0.0 0.00 0.00 0.08 97 1011.7
20260906014917 23 53 0.0 0.0 0.00 0.00 0.08 97 1011.8
20260906014417 23 360 0.0 0.0 0.00 0.00 0.08 97 1011.8
20260906013917 23 360 0.0 0.0 0.00 0.00 0.08 97 1011.7
20260906013417 23 360 0.0 0.0 0.00 0.00 0.08 97 1011.7
20260906012917 23 360 0.0 0.0 0.00 0.00 0.08 97 1011.7
20260906012417 23 360 0.0 0.0 0.00 0.00 0.08 97 1011.6
20260906011917 23 83 0.0 1.6 0.00 0.00 0.08 97 1011.6
20260906011417 23 360 0.0 0.0 0.00 0.00 0.08 97 1011.6
20260906010917 23 360 0.0 0.0 0.00 0.00 0.08 96 1011.7
20260906010420 23 360 0.0 0.0 0.00 0.00 0.08 96 1011.6
20260906005917 23 360 0.0 0.0 0.00 0.00 0.08 96 1011.5
20260906005417 23 360 0.0 0.0 0.00 0.00 0.08 97 1011.5
20260906004917 23 360 0.0 0.0 0.00 0.00 0.08 97 1011.5
20260906004417 23 76 0.0 1.6 0.00 0.00 0.08 96 1011.5
20260906003917 23 66 0.0 0.0 0.00 0.00 0.08 96 1011.4
20260906003417 23 251 0.0 1.6 0.00 0.00 0.08 96 1011.4
20260906002918 24 218 0.0 1.6 0.00 0.00 0.08 96 1011.3
20260906002417 24 75 1.6 1.6 0.00 0.00 0.08 95 1011.3
20260906001917 24 360 0.0 0.0 0.00 0.00 0.08 95 1011.2
20260906001417 24 360 0.0 0.0 0.00 0.00 0.08 95 1011.3
20260906000917 24 79 0.0 1.6 0.00 0.00 0.08 95 1011.1
20260906000418 24 360 0.0 0.0 0.00 0.00 0.08 95 1011.2
20260905235917 24 360 0.0 0.0 0.00 0.00 0.08 95 1011.1
20260905235417 25 360 0.0 0.0 0.00 0.00 0.08 94 1011.0
20260905234917 25 360 0.0 0.0 0.00 0.00 0.08 95 1010.9
20260905234417 25 163 0.0 1.6 0.00 0.00 0.08 95 1010.9
20260905233918 25 159 0.0 0.0 0.00 0.00 0.08 94 1010.6
20260905233417 25 57 3.2 3.2 0.00 0.00 0.08 93 1010.6
20260905232917 25 65 3.2 4.8 0.00 0.00 0.08 94 1010.6
20260905232417 25 47 1.6 1.6 0.00 0.00 0.08 94 1010.5
20260905231920 25 75 1.6 3.2 0.00 0.00 0.08 93 1010.4
20260905231418 25 235 1.6 4.8 0.00 0.00 0.08 92 1010.4
20260905230917 25 59 1.6 4.8 0.00 0.00 0.08 93 1010.3
20260905230417 25 196 1.6 3.2 0.00 0.00 0.08 93 1010.1
20260905225917 25 82 1.6 1.6 0.00 0.00 0.08 93 1010.1
20260905225417 25 44 1.6 4.8 0.00 0.00 0.08 93 1009.9
20260905224917 25 217 1.6 4.8 0.00 0.00 0.08 95 1009.8
20260905224419 25 50 4.8 6.4 0.00 0.00 0.08 95 1009.7
20260905223917 25 81 1.6 3.2 0.00 0.00 0.08 95 1009.5
20260905223418 25 237 4.8 6.4 0.00 0.00 0.08 95 1009.6
20260905222917 25 71 0.0 1.6 0.00 0.00 0.08 95 1009.8
20260905222417 24 62 1.6 1.6 0.00 0.00 0.08 96 1010.1
20260905221917 24 57 0.0 0.0 0.00 0.00 0.08 95 1010.3
20260905221417 25 89 1.6 1.6 0.00 0.00 0.08 95 1010.6
20260905220917 24 360 0.0 0.0 0.00 0.00 0.08 95 1010.6
20260905220417 24 62 1.6 3.2 0.00 0.00 0.08 95 1010.6
20260905215917 24 360 0.0 0.0 0.00 0.00 0.10 94 1010.6
20260905215417 24 360 0.0 0.0 0.00 0.00 0.10 94 1010.6
20260905214917 24 360 0.0 0.0 0.00 0.00 0.10 94 1010.6
20260905214417 24 360 0.0 0.0 0.00 0.00 0.10 94 1010.6
20260905213917 24 360 0.0 0.0 0.00 0.00 0.10 95 1010.4
20260905213417 24 75 1.6 1.6 0.00 0.00 0.10 95 1010.2
20260905212917 24 90 1.6 1.6 0.00 0.00 0.10 94 1010.0
20260905212422 24 47 1.6 3.2 0.00 0.00 0.10 93 1010.0
20260905211917 24 52 0.0 0.0 0.00 0.00 0.13 94 1010.2
20260905211417 24 70 1.6 3.2 0.00 0.00 0.13 93 1010.2
20260905210917 25 360 0.0 0.0 0.00 0.00 0.10 92 1010.2
20260905210417 25 54 1.6 1.6 0.00 0.00 0.10 91 1010.0
20260905205917 25 360 0.0 0.0 0.00 0.00 0.10 89 1010.1
20260905205416 25 360 0.0 0.0 0.00 0.00 0.08 89 1010.3
20260905204917 25 360 0.0 0.0 0.00 0.00 0.08 89 1010.2
20260905204418 25 259 1.6 3.2 0.00 0.00 0.08 88 1010.0
20260905203917 25 360 0.0 0.0 0.00 0.00 0.05 86 1009.9
20260905203419 25 224 0.0 0.0 0.00 0.00 0.05 86 1009.9
20260905202917 25 360 0.0 0.0 0.00 0.00 0.03 86 1009.9
20260905202417 26 88 1.6 3.2 0.00 0.00 0.03 83 1009.8
20260905201917 27 65 1.6 4.8 0.00 0.00 0.03 79 1009.9
20260905201417 27 207 0.0 3.2 0.00 0.00 0.03 74 1009.7
20260905200917 28 74 1.6 4.8 0.00 0.00 0.03 69 1009.6
20260905200417 28 76 3.2 3.2 0.00 0.00 0.00 67 1009.9
20260905195917 28 226 4.8 11.3 0.00 0.00 0.00 65 1010.3
20260905195417 29 71 3.2 4.8 0.00 0.00 0.00 66 1010.7
20260905194917 30 81 4.8 11.3 0.00 0.00 0.00 64 1011.1
20260905194417 30 156 0.0 3.2 0.00 0.00 0.00 63 1010.6
20260905193917 31 37 3.2 11.3 0.00 0.00 0.00 62 1010.4
20260905193417 33 66 6.4 11.3 0.00 0.00 0.00 58 1010.4
20260905192917 34 50 3.2 8.0 0.00 0.00 0.00 52 1009.9
20260905192417 35 65 1.6 3.2 0.00 0.00 0.00 50 1009.5
20260905191917 35 360 0.0 0.0 0.00 0.00 0.00 49 1009.4
20260905191417 35 19 0.0 1.6 0.00 0.00 0.00 48 1009.3
20260905190917 35 76 0.0 1.6 0.00 0.00 0.00 48 1009.4
20260905190417 35 360 0.0 0.0 0.00 0.00 0.00 49 1009.3
20260905185917 35 26 0.0 3.2 0.00 0.00 0.00 49 1009.1
20260905185417 35 274 0.0 0.0 0.00 0.00 0.00 47 1009.2
20260905184917 35 1 0.0 1.6 0.00 0.00 0.00 48 1009.3
20260905184417 36 102 0.0 3.2 0.00 0.00 0.00 46 1009.3
20260905183918 36 57 3.2 6.4 0.00 0.00 0.00 46 1009.4
20260905183417 36 31 3.2 3.2 0.00 0.00 0.00 49 1009.4
20260905182917 36 220 4.8 8.0 0.00 0.00 0.00 43 1009.4
20260905182417 36 230 1.6 6.4 0.00 0.00 0.00 45 1009.5
20260905181917 36 84 1.6 4.8 0.00 0.00 0.00 44 1009.7
20260905181417 36 249 1.6 3.2 0.00 0.00 0.00 43 1009.9
20260905180917 36 59 3.2 6.4 0.00 0.00 0.00 47 1010.0
20260905180417 36 68 3.2 8.0 0.00 0.00 0.00 50 1010.0
20260905175918 36 238 3.2 4.8 0.00 0.00 0.00 46 1010.1
20260905175417 36 63 1.6 6.4 0.00 0.00 0.00 50 1010.3
20260905174918 36 266 0.0 3.2 0.00 0.00 0.00 49 1010.4
20260905174417 36 53 0.0 3.2 0.00 0.00 0.00 48 1010.6
20260905173917 36 226 1.6 4.8 0.00 0.00 0.00 47 1010.9
20260905173417 36 90 3.2 6.4 0.00 0.00 0.00 50 1010.9
20260905172918 36 57 3.2 6.4 0.00 0.00 0.00 49 1011.0
20260905172417 36 54 3.2 9.7 0.00 0.00 0.00 50 1010.9
20260905171917 36 239 0.0 1.6 0.00 0.00 0.00 50 1011.0
20260905171417 36 241 1.6 3.2 0.00 0.00 0.00 48 1011.1
20260905170917 35 257 0.0 1.6 0.00 0.00 0.00 50 1011.3
20260905170417 35 67 3.2 8.0 0.00 0.00 0.00 53 1011.4
20260905165918 35 73 3.2 9.7 0.00 0.00 0.00 51 1011.4
20260905165417 35 82 1.6 3.2 0.00 0.00 0.00 52 1011.5
20260905164945 35 46 1.6 3.2 0.00 0.00 0.00 51 1011.5
20260905164417 35 66 1.6 6.4 0.00 0.00 0.00 52 1011.6
20260905163919 35 42 1.6 6.4 0.00 0.00 0.00 56 1011.6
20260905163417 34 213 0.0 3.2 0.00 0.00 0.00 54 1011.6
20260905162917 34 143 1.6 3.2 0.00 0.00 0.00 54 1011.7
20260905162418 34 233 3.2 6.4 0.00 0.00 0.00 55 1011.8
20260905161917 34 229 1.6 3.2 0.00 0.00 0.00 52 1011.9
20260905161417 34 323 0.0 3.2 0.00 0.00 0.00 55 1012.0
20260905160918 34 87 0.0 0.0 0.00 0.00 0.00 58 1012.0
20260905160417 33 61 0.0 3.2 0.00 0.00 0.00 59 1012.1
20260905155918 33 250 3.2 6.4 0.00 0.00 0.00 57 1012.1
20260905155417 33 238 1.6 3.2 0.00 0.00 0.00 57 1012.3
20260905154917 33 207 0.0 3.2 0.00 0.00 0.00 60 1012.4
20260905154417 32 269 1.6 8.0 0.00 0.00 0.00 59 1012.4
20260905153917 32 243 3.2 6.4 0.00 0.00 0.00 59 1012.5
20260905153417 32 34 1.6 4.8 0.00 0.00 0.00 60 1012.6
20260905152917 32 78 3.2 6.4 0.00 0.00 0.00 62 1012.6
20260905152417 32 360 0.0 0.0 0.00 0.00 0.00 64 1012.6
20260905151916 32 63 0.0 3.2 0.00 0.00 0.00 63 1012.7
20260905151417 32 212 0.0 4.8 0.00 0.00 0.00 61 1012.7
20260905150917 31 68 4.8 9.7 0.00 0.00 0.00 66 1012.7
20260905150418 31 360 0.0 0.0 0.00 0.00 0.00 65 1012.7
20260905145917 31 226 3.2 4.8 0.00 0.00 0.00 64 1012.7
20260905145417 31 360 0.0 0.0 0.00 0.00 0.00 67 1012.7
20260905144917 31 222 0.0 3.2 0.00 0.00 0.00 67 1012.8
20260905144417 31 237 3.2 6.4 0.00 0.00 0.00 65 1012.8
20260905143917 31 195 0.0 3.2 0.00 0.00 0.00 66 1012.8
20260905143417 30 229 1.6 4.8 0.00 0.00 0.00 68 1012.7
20260905142917 30 245 0.0 3.2 0.00 0.00 0.00 69 1012.7
20260905142417 30 268 3.2 9.7 0.00 0.00 0.00 69 1012.7
20260905141918 30 47 1.6 3.2 0.00 0.00 0.00 72 1012.7
20260905141418 29 224 3.2 3.2 0.00 0.00 0.00 70 1012.7
20260905140917 29 46 3.2 4.8 0.00 0.00 0.00 71 1012.7
20260905140417 29 223 3.2 4.8 0.00 0.00 0.00 73 1012.6
20260905135917 29 45 3.2 3.2 0.00 0.00 0.00 74 1012.6
20260905135417 28 47 4.8 6.4 0.00 0.00 0.00 77 1012.6
20260905134916 28 119 1.6 4.8 0.00 0.00 0.00 76 1012.6
20260905134417 28 50 1.6 3.2 0.00 0.00 0.00 76 1012.6
20260905133917 28 232 3.2 3.2 0.00 0.00 0.00 77 1012.6
20260905133417 28 226 3.2 3.2 0.00 0.00 0.00 76 1012.6
20260905132917 27 223 3.2 3.2 0.00 0.00 0.00 78 1012.7
20260905132417 27 48 1.6 3.2 0.00 0.00 0.00 81 1012.7
20260905131917 27 220 3.2 3.2 0.00 0.00 0.00 82 1012.7
20260905131417 26 226 1.6 3.2 0.00 0.00 0.00 83 1012.7
20260905130917 26 226 3.2 3.2 0.00 0.00 0.00 84 1012.7
20260905130417 26 81 3.2 4.8 0.00 0.00 0.00 86 1012.8
20260905125917 26 220 3.2 6.4 0.00 0.00 0.00 86 1012.7
20260905125417 25 221 4.8 6.4 0.00 0.00 0.00 87 1012.9
20260905124917 25 217 4.8 6.4 0.00 0.00 0.00 87 1012.9
20260905124417 25 53 0.0 0.0 0.00 0.00 0.00 89 1013.0
20260905123917 25 72 0.0 0.0 0.00 0.00 0.00 89 1013.0
20260905123417 24 128 0.0 1.6 0.00 0.00 0.00 91 1013.0
20260905122919 24 360 0.0 0.0 0.00 0.00 0.00 92 1013.0
20260905122418 23 234 1.6 6.4 0.00 0.00 0.00 94 1013.0
20260905121917 23 236 0.0 1.6 0.00 0.00 0.00 94 1012.9
20260905121417 23 360 0.0 0.0 0.00 0.00 0.00 95 1012.9